Fort Eustis, VA

6:53 AM EST on November 22, 2019 (GMT -0500)
Felker Army Air Field

Weather History for KFAF - September, 2019

Change the Weather History Date:

Saturday, September 28, 2019

  Actual Average Record
Temperature  
Mean Temperature 80 °F -  
Max Temperature 89 °F 74 °F 95 °F (1998)
Min Temperature 73 °F 58 °F 48 °F (2000)
Cooling Degree Days 16    
Growing Degree Days 30 (Base 50)    
Moisture  
Dew Point 71 °F    
Average Humidity 76    
Maximum Humidity 89    
Minimum Humidity 59    
Precipitation  
Precipitation 0.00 in - - ()
Sea Level Pressure  
Sea Level Pressure 30.10 in    
Wind  
Wind Speed 5 mph ()    
Max Wind Speed 8 mph    
Max Gust Speed -    
Visibility 10.0 miles    
Events      
Averages and records for this station are not official NWS values.
T = Trace of Precipitation, MM = Missing Value Source: Averaged Metar Reports

Daily Weather History Graph

Daily Weather History Graph

Search for Another Location

Airport or City:

Astronomy

Sep. 28, 2019 Rise Set
Actual Time 6:59 AM EDT 6:54 PM EDT
Civil Twilight 6:33 AM EDT 7:20 PM EDT
Nautical Twilight 6:02 AM EDT 7:50 PM EDT
Astronomical Twilight 5:32 AM EDT 8:21 PM EDT
Moon 6:34 AM EDT (9/28) 7:18 PM EDT (9/28)
Length of Visible Light 12h 47m
Length of Day
11h 55m
Waning Crescent, 0% of the Moon is Illuminated
Sep 28
Waning Crescent
Sep 28
New
Oct 5
First Quarter
Oct 13
Full
Oct 21
Last Quarter

Hourly Weather History & Observations

Time (EDT) Temp. Heat Index Dew Point Humidity Pressure Visibility Wind Dir Wind Speed Gust Speed Precip Events Conditions
12:56 AM 73.0 °F - 67.5 °F 83% 30.10 in 10.0 mi SE 4.6 mph - N/A   Overcast
1:56 AM 74.1 °F - 67.5 °F 80% 30.09 in 10.0 mi SE 5.8 mph - N/A   Mostly Cloudy
2:56 AM 73.8 °F - 67.1 °F 80% 30.08 in 10.0 mi SE 4.6 mph - N/A   Partly Cloudy
3:56 AM 74.1 °F - 67.8 °F 81% 30.07 in 10.0 mi SSE 5.8 mph - N/A   Mostly Cloudy
4:56 AM 74.5 °F - 68.9 °F 83% 30.08 in 10.0 mi SE 5.8 mph - N/A   Mostly Cloudy
5:56 AM 74.7 °F - 69.1 °F 83% 30.10 in 10.0 mi SSE 5.8 mph - N/A   Overcast
6:36 AM 75.2 °F - 69.8 °F 83% 30.11 in 10.0 mi South 3.5 mph - N/A   Overcast
6:56 AM 74.5 °F - 69.3 °F 84% 30.11 in 10.0 mi South 5.8 mph - N/A   Overcast
7:56 AM 74.5 °F - 70.0 °F 86% 30.12 in 10.0 mi SSW 5.8 mph - N/A   Overcast
8:16 AM 75.2 °F - 69.8 °F 83% 30.13 in 10.0 mi SSW 5.8 mph - N/A   Overcast
8:56 AM 74.5 °F - 71.1 °F 89% 30.12 in 10.0 mi SSW 5.8 mph - N/A   Overcast
9:06 AM 75.2 °F - 71.6 °F 89% 30.12 in 10.0 mi South 8.1 mph - N/A   Overcast
9:26 AM 75.2 °F - 71.6 °F 89% 30.13 in 10.0 mi SSW 6.9 mph - N/A   Overcast
9:56 AM 77.7 °F - 72.9 °F 85% 30.13 in 10.0 mi South 8.1 mph - N/A   Mostly Cloudy
10:56 AM 78.8 °F - 71.6 °F 78% 30.14 in 10.0 mi West 3.5 mph - N/A   Overcast
11:56 AM 81.5 °F 86.3 °F 72.3 °F 74% 30.13 in 10.0 mi South 5.8 mph - N/A   Scattered Clouds
12:56 PM 82.8 °F 88.2 °F 72.7 °F 71% 30.12 in 10.0 mi SSW 3.5 mph - N/A   Clear
1:56 PM 86.5 °F 93.8 °F 73.2 °F 64% 30.09 in 10.0 mi Calm Calm - N/A   Clear
2:56 PM 88.7 °F 96.2 °F 72.5 °F 59% 30.07 in 10.0 mi NE 3.5 mph - N/A   Clear
3:56 PM 88.5 °F 96.8 °F 73.8 °F 61% 30.06 in 10.0 mi NW 3.5 mph - N/A   Clear
4:56 PM 87.8 °F 95.2 °F 72.7 °F 61% 30.06 in 10.0 mi South 5.8 mph - N/A   Clear
5:56 PM 87.3 °F 93.6 °F 71.6 °F 60% 30.06 in 10.0 mi SE 5.8 mph - N/A   Clear
6:56 PM 83.7 °F 88.6 °F 71.1 °F 66% 30.07 in 10.0 mi SE 4.6 mph - N/A   Clear
7:56 PM 79.5 °F - 71.2 °F 76% 30.06 in 10.0 mi SE 5.8 mph - N/A   Partly Cloudy
8:56 PM 81.1 °F 84.9 °F 70.7 °F 70% 30.07 in 10.0 mi South 3.5 mph - N/A   Clear
9:56 PM 80.1 °F 83.4 °F 70.5 °F 73% 30.09 in 10.0 mi SSW 5.8 mph - N/A   Partly Cloudy
10:56 PM 79.9 °F - 70.3 °F 73% 30.10 in 10.0 mi SSW 4.6 mph - N/A   Clear
11:56 PM 79.0 °F - 70.0 °F 74% 30.10 in 10.0 mi SSW 4.6 mph - N/A   Scattered Clouds